Вернуться в каталог

STARLINK-36107

АктивенСвязьVLEO
NORAD 66979·PAYLOAD·🇺🇸 United States

Запущен Dec 8, 2025 с Cape Canaveral Space Force Station

Loading…

Ближайшие Пролёты (ближайшие 24 часа)

TLE

СвежийSource: CelesTrak SupGP

Эпоха: Sep 14, 2026, 23:07 UTC

1 66979C 25288W   26257.96368056  .00012595  00000+0  45620-3 0  2575
2 66979  43.0033  34.9262 0001600 269.8055 311.1508 15.27571349    14

Отслеживайте STARLINK-36107 в реальном времени с AllMySat

Download on the App Store